When you browse on this site, cookies collect data to enhance your experience and personalize the content and advertising you see.
Visit our Privacy Policy to learn more. By continuing to use the site, you agree to this use of cookies and data.
  • în România
  • Lista ţărilor
  • Pe 7 zile
  • Temperatura apei
  • Meteo pe hartă
  • Widget-uri
  • user-avatar
    Intrare

    Meteo pe oră la Ustka

    Astăzi, 25 August, Duminică

    Timp Temperatura Precipitaţii Vânt Presiune Umiditate
    00:00 +19°C° 0 mm 4 m/s 768 mmHg 72%
    01:00 +18°C° 0 mm 4 m/s 768 mmHg 73%
    02:00 +18°C° 0 mm 3 m/s 768 mmHg 73%
    03:00 +18°C° 0 mm 3 m/s 768 mmHg 74%
    04:00 +18°C° 0 mm 3 m/s 768 mmHg 74%
    05:00 +19°C° 0 mm 3 m/s 768 mmHg 71%
    06:00 +20°C° 0 mm 3 m/s 768 mmHg 68%
    07:00 +21°C° 0 mm 3 m/s 768 mmHg 65%
    08:00 +22°C° 0 mm 3 m/s 768 mmHg 58%
    09:00 +25°C° 0 mm 3 m/s 768 mmHg 52%
    10:00 +27°C° 0 mm 3 m/s 768 mmHg 45%
    11:00 +28°C° 0 mm 3 m/s 768 mmHg 43%
    12:00 +28°C° 0 mm 4 m/s 768 mmHg 42%
    13:00 +29°C° 0 mm 4 m/s 768 mmHg 40%
    14:00 +29°C° 0 mm 4 m/s 768 mmHg 41%
    15:00 +29°C° 0 mm 5 m/s 767 mmHg 42%
    16:00 +29°C° 0 mm 5 m/s 767 mmHg 43%
    17:00 +27°C° 0 mm 5 m/s 767 mmHg 49%
    18:00 +25°C° 0 mm 5 m/s 767 mmHg 54%
    19:00 +22°C° 0 mm 5 m/s 767 mmHg 59%
    20:00 +21°C° 0 mm 5 m/s 767 mmHg 63%
    21:00 +20°C° 0 mm 4 m/s 767 mmHg 68%
    22:00 +19°C° 0 mm 4 m/s 767 mmHg 72%
    23:00 +19°C° 0 mm 4 m/s 767 mmHg 72%

    Mâine, 26 August, Luni

    Timp Temperatura Precipitaţii Vânt Presiune Umiditate
    00:00 +19°C° 0 mm 4 m/s 767 mmHg 71%
    01:00 +18°C° 0 mm 3 m/s 767 mmHg 70%
    02:00 +18°C° 0 mm 3 m/s 767 mmHg 71%
    03:00 +18°C° 0 mm 3 m/s 767 mmHg 72%
    04:00 +17°C° 0 mm 3 m/s 767 mmHg 73%
    05:00 +18°C° 0 mm 4 m/s 766 mmHg 70%
    06:00 +19°C° 0 mm 4 m/s 766 mmHg 68%
    07:00 +20°C° 0 mm 4 m/s 766 mmHg 65%
    08:00 +22°C° 0 mm 4 m/s 766 mmHg 60%
    09:00 +25°C° 0 mm 4 m/s 766 mmHg 55%
    10:00 +27°C° 0 mm 4 m/s 766 mmHg 50%
    11:00 +28°C° 0 mm 4 m/s 766 mmHg 47%
    12:00 +29°C° 0 mm 4 m/s 766 mmHg 45%
    13:00 +30°C° 0 mm 4 m/s 766 mmHg 43%
    14:00 +30°C° 0 mm 4 m/s 766 mmHg 44%
    15:00 +30°C° 0 mm 4 m/s 765 mmHg 45%
    16:00 +30°C° 0 mm 4 m/s 765 mmHg 46%
    17:00 +28°C° 0 mm 5 m/s 765 mmHg 52%
    18:00 +26°C° 0 mm 5 m/s 765 mmHg 58%
    19:00 +25°C° 0 mm 5 m/s 765 mmHg 64%
    20:00 +23°C° 0 mm 5 m/s 765 mmHg 67%
    21:00 +22°C° 0 mm 5 m/s 765 mmHg 70%
    22:00 +21°C° 0 mm 4 m/s 765 mmHg 73%
    23:00 +21°C° 0 mm 4 m/s 765 mmHg 74%

    Poimâine, 27 August, Marţi

    Timp Temperatura Precipitaţii Vânt Presiune Umiditate
    00:00 +21°C° 0 mm 4 m/s 765 mmHg 75%
    01:00 +21°C° 0 mm 3 m/s 765 mmHg 77%
    02:00 +20°C° 0 mm 3 m/s 765 mmHg 77%
    03:00 +20°C° 0 mm 3 m/s 765 mmHg 78%
    04:00 +20°C° 0 mm 3 m/s 765 mmHg 79%
    05:00 +20°C° 0 mm 4 m/s 765 mmHg 75%
    06:00 +21°C° 0 mm 4 m/s 765 mmHg 72%
    07:00 +22°C° 0 mm 4 m/s 765 mmHg 69%
    08:00 +25°C° 0 mm 4 m/s 765 mmHg 64%
    09:00 +27°C° 0 mm 4 m/s 765 mmHg 59%
    10:00 +29°C° 0 mm 4 m/s 765 mmHg 53%
    11:00 +30°C° 0 mm 4 m/s 765 mmHg 51%
    12:00 +32°C° 0 mm 4 m/s 765 mmHg 49%
    13:00 +33°C° 0 mm 4 m/s 765 mmHg 47%
    14:00 +33°C° 0.2 mm 4 m/s 764 mmHg 47%
    15:00 +33°C° 0.2 mm 5 m/s 764 mmHg 47%
    16:00 +33°C° 0.2 mm 5 m/s 764 mmHg 47%
    17:00 +30°C° 0.4 mm 5 m/s 764 mmHg 52%
    18:00 +29°C° 0.4 mm 5 m/s 763 mmHg 56%
    19:00 +27°C° 0.4 mm 5 m/s 763 mmHg 61%
    20:00 +26°C° 0.5 mm 5 m/s 763 mmHg 65%
    21:00 +25°C° 0.5 mm 5 m/s 763 mmHg 69%
    22:00 +23°C° 0.5 mm 5 m/s 764 mmHg 73%
    23:00 +23°C° 0.4 mm 4 m/s 763 mmHg 75%

    28 August, Miercuri

    Timp Temperatura Precipitaţii Vânt Presiune Umiditate
    00:00 +22°C° 0.4 mm 4 m/s 763 mmHg 78%
    01:00 +22°C° 0.4 mm 3 m/s 763 mmHg 80%
    02:00 +21°C° 0.4 mm 3 m/s 763 mmHg 82%
    03:00 +21°C° 0.4 mm 2 m/s 763 mmHg 83%
    04:00 +21°C° 0.4 mm 2 m/s 763 mmHg 85%
    05:00 +21°C° 0 mm 3 m/s 763 mmHg 83%
    06:00 +21°C° 0 mm 4 m/s 763 mmHg 82%
    07:00 +22°C° 0 mm 4 m/s 763 mmHg 81%
    08:00 +23°C° 0.1 mm 5 m/s 763 mmHg 75%
    09:00 +26°C° 0.1 mm 5 m/s 763 mmHg 69%
    10:00 +27°C° 0.1 mm 5 m/s 763 mmHg 63%
    11:00 +28°C° 0.4 mm 5 m/s 762 mmHg 60%
    12:00 +29°C° 0.4 mm 5 m/s 762 mmHg 57%
    13:00 +30°C° 0.4 mm 5 m/s 762 mmHg 54%
    14:00 +30°C° 0.1 mm 5 m/s 762 mmHg 52%
    15:00 +30°C° 0.1 mm 5 m/s 761 mmHg 50%
    16:00 +30°C° 0.1 mm 5 m/s 761 mmHg 47%
    17:00 +29°C° 0.1 mm 5 m/s 761 mmHg 51%
    18:00 +28°C° 0.1 mm 5 m/s 760 mmHg 54%
    19:00 +27°C° 0.1 mm 5 m/s 760 mmHg 58%
    20:00 +26°C° 0.3 mm 5 m/s 760 mmHg 62%
    21:00 +25°C° 0.3 mm 5 m/s 760 mmHg 66%
    22:00 +23°C° 0.3 mm 6 m/s 760 mmHg 70%
    23:00 +23°C° 0.1 mm 6 m/s 760 mmHg 72%

    29 August, Joi

    Timp Temperatura Precipitaţii Vânt Presiune Umiditate
    00:00 +23°C° 0.1 mm 6 m/s 760 mmHg 73%
    01:00 +22°C° 0.1 mm 6 m/s 760 mmHg 75%
    02:00 +22°C° 0 mm 6 m/s 760 mmHg 76%
    03:00 +22°C° 0 mm 7 m/s 760 mmHg 76%
    04:00 +22°C° 0 mm 7 m/s 760 mmHg 76%
    05:00 +22°C° 0.6 mm 7 m/s 760 mmHg 78%
    06:00 +22°C° 0.6 mm 7 m/s 760 mmHg 79%
    07:00 +22°C° 0.6 mm 7 m/s 760 mmHg 81%
    08:00 +23°C° 0.6 mm 6 m/s 760 mmHg 76%
    09:00 +26°C° 0.6 mm 6 m/s 760 mmHg 71%
    10:00 +27°C° 0.6 mm 6 m/s 760 mmHg 66%
    11:00 +28°C° 0.1 mm 5 m/s 760 mmHg 61%
    12:00 +30°C° 0.1 mm 5 m/s 760 mmHg 56%
    13:00 +32°C° 0.1 mm 5 m/s 760 mmHg 52%
    14:00 +32°C° 0.1 mm 4 m/s 760 mmHg 51%
    15:00 +32°C° 0.1 mm 4 m/s 759 mmHg 51%
    16:00 +31°C° 0.1 mm 3 m/s 759 mmHg 51%
    17:00 +29°C° 0.6 mm 3 m/s 759 mmHg 57%
    18:00 +28°C° 0.6 mm 3 m/s 759 mmHg 63%
    19:00 +26°C° 0.6 mm 2 m/s 760 mmHg 69%
    20:00 +25°C° 0.7 mm 2 m/s 760 mmHg 75%
    21:00 +24°C° 0.7 mm 3 m/s 760 mmHg 80%
    22:00 +22°C° 0.7 mm 3 m/s 761 mmHg 86%
    23:00 +22°C° 0.1 mm 3 m/s 760 mmHg 86%

    30 August, Vineri

    Timp Temperatura Precipitaţii Vânt Presiune Umiditate
    00:00 +22°C° 0.1 mm 3 m/s 760 mmHg 86%
    01:00 +22°C° 0.1 mm 3 m/s 760 mmHg 86%
    02:00 +21°C° 0.3 mm 2 m/s 760 mmHg 88%
    03:00 +21°C° 0.3 mm 2 m/s 760 mmHg 90%
    04:00 +20°C° 0.3 mm 2 m/s 760 mmHg 92%
    05:00 +21°C° 0 mm 2 m/s 760 mmHg 91%
    06:00 +21°C° 0 mm 2 m/s 761 mmHg 90%
    07:00 +23°C° 0 mm 2 m/s 761 mmHg 88%
    08:00 +24°C° 0 mm 2 m/s 761 mmHg 83%
    09:00 +25°C° 0 mm 2 m/s 761 mmHg 77%
    10:00 +26°C° 0 mm 2 m/s 762 mmHg 72%
    11:00 +26°C° 0 mm 3 m/s 762 mmHg 70%
    12:00 +27°C° 0 mm 4 m/s 762 mmHg 69%
    13:00 +27°C° 0 mm 4 m/s 762 mmHg 68%
    14:00 +26°C° 0 mm 4 m/s 762 mmHg 71%
    15:00 +25°C° 0 mm 4 m/s 762 mmHg 74%
    16:00 +23°C° 0 mm 4 m/s 762 mmHg 78%
    17:00 +22°C° 0 mm 4 m/s 762 mmHg 81%
    18:00 +21°C° 0 mm 3 m/s 762 mmHg 84%
    19:00 +20°C° 0 mm 3 m/s 762 mmHg 87%
    20:00 +20°C° 0 mm 3 m/s 763 mmHg 88%
    21:00 +19°C° 0 mm 4 m/s 763 mmHg 89%
    22:00 +19°C° 0 mm 4 m/s 763 mmHg 90%
    23:00 +19°C° 0 mm 4 m/s 763 mmHg 87%
    Arată mai mult